This demonstration page uses our WeatherBlox Daily Observations layout. Learn more.

Left ArrowRight Arrow

Hourly Observations for September 20, 2017

Temp ( °F °C ) Dew Point ( °F °C ) Humidity (%) Winds ( mph kmh ) Pressure ( in mb ) Visibility ( mi km ) Precip ( " mm )
12:54 am 00:54 Clear 79 26.1 71 21.7 77 77 S 21 33 29.51 999 10 16.0934 0 0
1:54 am 01:54 Clear 80 26.7 71 21.7 74 74 S 21 33 29.54 1001 10 16.0934 0 0
2:54 am 02:54 Clear 79 26.1 70 21.1 74 74 SSW 10 17 29.59 1002 10 16.0934 0 0
3:54 am 03:54 Clear 77 25 68 20 74 74 W 8 13 29.59 1002 10 16.0934 0 0
4:54 am 04:54 Clear 68 20 54 12.2 61 61 N 18 30 29.64 1004 10 16.0934 0 0
5:54 am 05:54 Clear 66 18.9 50 10 56 56 N 13 20 29.67 1005 10 16.0934 0 0
6:54 am 06:54 Clear 64 17.8 51 10.6 63 63 N 7 11 29.7 1006 10 16.0934 0 0
7:54 am 07:54 Sunny 64 17.8 52 11.1 65 65 NNW 14 22 29.74 1007 10 16.0934 0 0
8:54 am 08:54 Sunny 68 20 53 11.7 59 59 N 14 22 29.76 1008 10 16.0934 0 0
9:54 am 09:54 Sunny 71 21.7 52 11.1 51 51 NNW 12 19 29.79 1009 10 16.0934 0 0
10:54 am 10:54 Sunny 74 23.3 51 10.6 45 45 NNW 15 24 29.8 1009 10 16.0934 0 0
11:54 am 11:54 Sunny 77 25 51 10.6 40 40 NNW 13 20 29.81 1010 10 16.0934 0 0
12:54 pm 12:54 Sunny 79 26.1 50 10 36 36 N 10 17 29.81 1010 10 16.0934 0 0
1:54 pm 13:54 Sunny 80 26.7 52 11.1 38 38 N 8 13 29.81 1010 10 16.0934 0 0
2:54 pm 14:54 Sunny 81 27.2 52 11.1 37 37 NNW 9 15 29.81 1010 10 16.0934 0 0
3:54 pm 15:54 Sunny 81 27.2 51 10.6 35 35 N 12 19 29.81 1009 10 16.0934 0 0
4:54 pm 16:54 Sunny 82 27.8 52 11.1 35 35 NNE 12 19 29.82 1010 10 16.0934 0 0
5:54 pm 17:54 Sunny 80 26.7 51 10.6 37 37 NNE 10 17 29.83 1010 10 16.0934 0 0
6:54 pm 18:54 Sunny 75 23.9 52 11.1 45 45 NE 8 13 29.84 1011 10 16.0934 0 0
7:54 pm 19:54 Clear 68 20 53 11.7 59 59 NE 8 13 29.85 1011 10 16.0934 0 0
8:54 pm 20:54 Clear 64 17.8 52 11.1 65 65 NE 8 13 29.87 1011 10 16.0934 0 0
9:54 pm 21:54 Clear 63 17.2 52 11.1 68 68 N 5 7 29.87 1012 10 16.0934 0 0
10:54 pm 22:54 Clear 63 17.2 52 11.1 68 68 NNE 5 7 29.87 1012 10 16.0934 0 0
11:54 pm 23:54 Clear 62 16.7 52 11.1 70 70 NNE 3 6 29.86 1011 10 16.0934 0 0

Powered by AerisWeather